Weather History for LGTS - October, 2012

Change the Weather History Date:

Friday, October 12, 2012

  Actual Average Record
Temperature  
Mean Temperature 66 °F -  
Max Temperature 77 °F 66 °F 80 °F (2001)
Min Temperature 56 °F 48 °F 50 °F (2003)
Cooling Degree Days 2    
Growing Degree Days 16 (Base 50)    
Moisture  
Dew Point 54 °F    
Average Humidity 65    
Maximum Humidity 82    
Minimum Humidity 35    
Precipitation  
Precipitation 0.00 in 0.06 in - ()
Sea Level Pressure  
Sea Level Pressure 29.98 in    
Wind  
Wind Speed 6 mph ()    
Max Wind Speed 13 mph    
Max Gust Speed -    
Visibility 6.2 miles    
Events      
Averages and records for this station are not official NWS values.
T = Trace of Precipitation, MM = Missing Value Source: Averaged Metar Reports

Daily Weather History Graph

Daily Weather History Graph

Search for Another Location

Airport or City:

Trip Planner

Search our weather history database for the weather conditions in past years. The results will help you decide how hot, cold, wet, or windy it might be!

Date:

Astronomy

Oct. 12, 2012 Rise Set
Actual Time 7:36 AM EEST 6:52 PM EEST
Civil Twilight 7:08 AM EEST 7:19 PM EEST
Nautical Twilight 6:37 AM EEST 7:51 PM EEST
Astronomical Twilight 6:05 AM EEST 8:22 PM EEST
Moon 3:57 AM EEST (10/12) 4:52 PM EEST (10/12)
Length of Visible Light 12h 11m
Length of Day
11h 16m
Waning Crescent, 13% of the Moon is Illuminated
Oct 12
Waning Crescent
Oct 15
New
Oct 22
First Quarter
Oct 29
Full
Nov 7
Last Quarter

Hourly Weather History & Observations

Time (EEST) Temp. Dew Point Humidity Pressure Visibility Wind Dir Wind Speed Gust Speed Precip Events Conditions
12:20 AM 60.8 °F 50.0 °F 68% 29.95 in - ESE 5.8 mph - N/A   Clear
12:50 AM 59.0 °F 51.8 °F 77% 29.95 in - ESE 5.8 mph - N/A   Clear
1:20 AM 57.2 °F 51.8 °F 82% 29.95 in - ESE 5.8 mph - N/A   Clear
1:50 AM 57.2 °F 50.0 °F 77% 29.98 in - ESE 5.8 mph - N/A   Clear
2:20 AM 57.2 °F 50.0 °F 77% 29.98 in - ESE 5.8 mph - N/A   Clear
2:50 AM 57.2 °F 48.2 °F 72% 29.98 in - ESE 8.1 mph - N/A   Clear
3:00 AM 57 °F 49 °F 66% 29.98 in 6 mi ESE 8.1 mph - -  
3:20 AM 57.2 °F 50.0 °F 77% 29.95 in - ESE 5.8 mph - N/A   Clear
3:50 AM 55.4 °F 50.0 °F 82% 29.95 in - ESE 4.6 mph - N/A   Clear
4:20 AM 55.4 °F 50.0 °F 82% 29.95 in - ESE 4.6 mph - N/A   Clear
5:50 AM 57.2 °F 48.2 °F 72% 29.98 in - West 6.9 mph - N/A   Clear
6:20 AM 57.2 °F 48.2 °F 72% 29.98 in - Variable 3.5 mph - N/A   Clear
6:50 AM 57.2 °F 48.2 °F 72% 29.98 in 6.2 mi ESE 5.8 mph - N/A   Partly Cloudy
7:20 AM 57.2 °F 50.0 °F 77% 29.98 in 6.2 mi ESE 5.8 mph - N/A   Scattered Clouds
7:50 AM 57.2 °F 50.0 °F 77% 29.98 in 6.2 mi ESE 5.8 mph - N/A   Scattered Clouds
8:20 AM 59.0 °F 50.0 °F 72% 29.98 in 6.2 mi ESE 5.8 mph - N/A   Scattered Clouds
8:50 AM 60.8 °F 51.8 °F 72% 29.98 in 6.2 mi ESE 4.6 mph - N/A   Scattered Clouds
9:00 AM 61 °F 51 °F 61% 29.99 in 6 mi ESE 4.6 mph - -   Scattered Clouds
9:50 AM 68.0 °F 57.2 °F 68% 30.01 in 6.2 mi Variable 3.5 mph - N/A   Scattered Clouds
10:20 AM 69.8 °F 57.2 °F 64% 30.01 in 6.2 mi Variable 1.2 mph - N/A   Scattered Clouds
10:50 AM 69.8 °F 57.2 °F 64% 30.01 in 6.2 mi West 4.6 mph - N/A   Scattered Clouds
11:20 AM 69.8 °F 59.0 °F 68% 30.01 in 6.2 mi West 4.6 mph - N/A   Scattered Clouds
11:50 AM 68.0 °F 57.2 °F 68% 30.01 in 6.2 mi WNW 6.9 mph - N/A   Mostly Cloudy
12:20 PM 68.0 °F 57.2 °F 68% 30.01 in 6.2 mi West 5.8 mph - N/A   Mostly Cloudy
12:50 PM 71.6 °F 57.2 °F 60% 30.01 in 6.2 mi WNW 4.6 mph - N/A   Mostly Cloudy
1:20 PM 69.8 °F 59.0 °F 68% 30.01 in 6.2 mi NW 4.6 mph - N/A   Mostly Cloudy
1:50 PM 71.6 °F 59.0 °F 64% 30.01 in 6.2 mi NW 5.8 mph - N/A   Mostly Cloudy
2:20 PM 73.4 °F 59.0 °F 61% 29.98 in 6.2 mi South 8.1 mph - N/A   Mostly Cloudy
2:50 PM 77.0 °F 55.4 °F 47% 29.98 in 6.2 mi SSE 8.1 mph - N/A   Scattered Clouds
3:00 PM 78 °F 56 °F 35% 29.98 in 6 mi SSE 8.1 mph - -   Scattered Clouds
3:20 PM 77.0 °F 55.4 °F 47% 29.95 in 6.2 mi SE 11.5 mph - N/A   Scattered Clouds
3:50 PM 77.0 °F 55.4 °F 47% 29.95 in 6.2 mi South 11.5 mph - N/A   Mostly Cloudy
4:20 PM 77.0 °F 55.4 °F 47% 29.95 in 6.2 mi South 12.7 mph - N/A   Mostly Cloudy
4:50 PM 75.2 °F 57.2 °F 53% 29.95 in 6.2 mi South 12.7 mph - N/A   Mostly Cloudy
5:20 PM 75.2 °F 57.2 °F 53% 29.95 in 6.2 mi South 12.7 mph - N/A   Mostly Cloudy
5:50 PM 75.2 °F 55.4 °F 50% 29.95 in 6.2 mi SSE 10.4 mph - N/A   Mostly Cloudy
6:20 PM 73.4 °F 55.4 °F 53% 29.95 in 6.2 mi South 9.2 mph - N/A   Mostly Cloudy
6:50 PM 73.4 °F 55.4 °F 53% 29.95 in 6.2 mi SSE 8.1 mph - N/A   Mostly Cloudy
7:20 PM 71.6 °F 53.6 °F 53% 29.98 in 6.2 mi SSE 5.8 mph - N/A   Mostly Cloudy
7:50 PM 71.6 °F 53.6 °F 53% 29.98 in 6.2 mi SSE 6.9 mph - N/A   Scattered Clouds
8:20 PM 69.8 °F 55.4 °F 60% 29.98 in 6.2 mi SSE 4.6 mph - N/A   Partly Cloudy
8:50 PM 66.2 °F 53.6 °F 64% 29.95 in 6.2 mi SSE 4.6 mph - N/A   Partly Cloudy
9:00 PM 66 °F 53 °F 54% 29.97 in 6 mi SSE 4.6 mph - -   Scattered Clouds
9:20 PM 66.2 °F 55.4 °F 68% 29.98 in 6.2 mi Variable 3.5 mph - N/A   Scattered Clouds
9:50 PM 66.2 °F 55.4 °F 68% 29.98 in 6.2 mi Calm Calm - N/A   Scattered Clouds
10:20 PM 66.2 °F 55.4 °F 68% 29.98 in 6.2 mi Calm Calm - N/A   Scattered Clouds
10:50 PM 64.4 °F 55.4 °F 73% 29.98 in 6.2 mi ESE 4.6 mph - N/A   Scattered Clouds
11:20 PM 64.4 °F 55.4 °F 73% 29.98 in 6.2 mi ESE 4.6 mph - N/A   Scattered Clouds
11:50 PM 64.4 °F 57.2 °F 77% 29.98 in 6.2 mi ESE 4.6 mph - N/A   Scattered Clouds